[[{"header":{"parameterUnit":"m.s-1","parameterCategory":1,"la1":30.2991,"la2":30.254,"lo1":-89.0895,"lo2":-89.0444,"dy":0.0017,"dx":0.0017,"nx":28,"ny":28,"refTime":"2025-07-14T03:00:00:Z","depth":0,"parameterNumber":2,"parameterNumberName":"U-component_of_WINDS"},"data":[0,0,0,0,0,0,0,0,0,0,0,0,0,0,0,0,0,0,0,0,0,0,0,0,0,0,0,0,0,0,0,0,0,0,0,0,0,0,0,0,0,0,0,0,0,0,0,0,0,0,0,0,0,0,0,0,0,0,3.4835,3.4836,0,3.4988,3.4989,3.4991,3.4972,3.497,3.4967,3.4965,3.5125,3.5131,3.5138,0,0,0,0,0,0,0,0,0,0,0,0,0,3.4529,3.4535,3.4834,3.4836,3.4838,3.4987,3.4989,3.4991,3.4973,3.497,3.4967,3.4964,3.5123,3.5131,3.5138,0,0,0,0,0,0,0,0,0,0,0,0,0,3.467,3.4536,3.4834,3.4847,3.4849,3.4987,3.4989,3.4992,3.4973,3.497,3.4966,3.4962,3.512,3.513,3.5139,3.5275,0,0,3.517,3.5174,0,0,0,0,0,0,0,0,3.4662,3.4681,3.4843,3.4846,3.4849,3.4957,3.494,3.5087,3.4974,3.4926,3.4965,3.4961,3.5072,3.5086,3.5123,3.5283,3.5289,3.5171,3.5177,3.5181,3.5184,0,0,0,0,0,0,0,3.4652,3.4674,3.4895,3.4845,3.4849,3.4846,3.4862,3.4968,3.5019,3.493,3.4929,3.4947,3.5073,3.5113,3.5126,3.5292,3.517,3.5179,3.5185,3.5189,3.557,3.5574,0,0,0,0,0,0,3.4639,3.4666,3.489,3.49,3.4744,3.4854,3.4872,3.4926,3.5017,3.5027,3.495,3.4946,3.5098,3.5115,3.5132,3.5295,3.5181,3.519,3.5196,3.5566,3.5571,3.5575,0,0,0,0,0,0,3.4632,3.4659,3.4884,3.4783,3.4811,3.4863,3.4925,3.4931,3.4971,3.5032,3.5042,3.4982,3.5096,3.5118,3.5239,3.5301,3.5194,3.5203,3.5561,3.5567,3.5573,3.5624,0,0,0,0,0,0,3.4623,3.4657,3.4708,3.4784,3.4817,3.4988,3.4928,3.4937,3.4988,3.4983,3.5064,3.5074,3.5095,3.5225,3.5249,3.5312,3.5211,3.5555,3.5564,3.5571,3.5617,3.5631,3.5644,0,0,0,0,0,3.4613,3.4717,3.471,3.4738,3.4882,3.4991,3.501,3.5031,3.4993,3.5045,3.5085,3.5072,3.5291,3.5237,3.5265,3.5332,3.5552,3.5561,3.5571,3.5611,3.5629,3.5643,0,0,0,0,0,0,3.4648,3.4727,3.4721,3.4853,3.4915,3.4988,3.5054,3.5049,3.5124,3.5117,3.514,3.5159,3.5281,3.5319,3.5258,3.5468,3.5416,3.5431,3.5438,3.5455,3.5468,3.5455,3.5219,0,0,0,0,0,3.4671,3.4752,3.4818,3.4928,3.496,3.5002,3.505,3.5061,3.5127,3.5153,3.5202,3.5267,3.5351,3.5405,3.5486,3.5623,3.564,3.5683,3.5697,3.5707,3.5719,3.5794,3.5814,3.5606,3.5606,3.5606,0,0,3.4719,3.4773,3.4823,3.4936,3.4986,3.507,3.5024,3.5116,3.5178,3.5168,3.5284,3.5322,3.5397,3.5527,3.5586,3.5562,3.5781,3.5719,3.5727,3.5734,3.5806,3.5825,3.5843,3.5613,3.5612,3.5611,0,0,3.485,3.4899,3.4995,3.5046,3.5121,3.5149,3.5172,3.5246,3.527,3.5387,3.5381,3.5457,3.5601,3.5654,3.57,3.5851,3.5842,3.5877,3.5945,3.6018,3.6034,3.6049,3.6101,3.612,3.589,3.589,3.589,0,3.49,3.5026,3.5046,3.5138,3.5188,3.5182,3.5279,3.5328,3.5427,3.5462,3.5433,3.5613,3.5663,3.5804,3.5841,3.5879,3.5906,3.5867,3.603,3.6045,3.6059,3.6109,3.6129,3.5894,3.5893,3.5893,3.5892,0,3.5084,3.5172,3.5241,3.5334,3.5392,3.5487,3.5522,3.5579,3.5585,3.5615,3.5735,3.5795,3.5887,3.5922,3.5929,3.6065,3.6047,3.6025,3.5973,3.6082,3.6129,3.6149,3.5899,3.5897,3.5896,3.5895,0,0,3.5239,3.5343,3.5367,3.5409,3.5492,3.5561,3.5656,3.5745,3.5792,3.5861,3.5941,3.6063,3.6042,3.6094,3.6108,3.6172,3.6286,3.6142,3.6144,3.6165,3.6438,3.6453,3.6475,3.6282,3.6285,3.6288,3.6431,0,3.5376,3.5542,3.5563,3.5711,3.5791,3.5787,3.587,3.593,3.5962,3.6036,3.6072,3.6157,3.6124,3.6155,3.6219,3.6259,3.6341,3.6249,3.6356,3.6359,3.6334,3.65,3.6516,3.6647,3.645,3.6453,3.6456,0,3.5558,3.563,3.5785,3.5856,3.5891,3.5965,3.6047,3.6118,3.6187,3.6206,3.6264,3.627,3.6369,3.6315,3.6451,3.6388,3.6433,3.646,3.6466,3.6474,3.6412,3.6511,3.669,3.6709,3.6485,3.6483,3.6481,0,3.5653,3.5789,3.5899,3.5936,3.6022,3.6074,3.6113,3.6178,3.623,3.6303,3.6337,3.6421,3.6467,3.6533,3.6561,3.652,3.6696,3.6644,3.6714,3.6713,3.6749,3.6746,3.6935,3.6782,3.6782,3.6781,3.6781,0,3.5802,3.5897,3.5943,3.601,3.6116,3.6141,3.6245,3.6283,3.6341,3.6416,3.6419,3.649,3.6524,3.66,3.6624,3.6732,3.6754,3.6772,3.6776,3.677,3.6767,3.6798,3.6789,3.6787,3.6786,3.6784,3.6784,0,3.5925,3.596,3.6079,3.6151,3.6172,3.6247,3.6309,3.6375,3.6406,3.6501,3.6525,3.6575,3.6665,3.6701,3.6811,3.6827,3.6952,3.6951,3.6928,3.6929,3.6995,3.6988,3.7209,3.7239,3.7068,3.7069,3.7071,0,3.6017,3.6089,3.6169,3.6219,3.6259,3.634,3.6392,3.642,3.6475,3.6559,3.6615,3.6704,3.6777,3.6921,3.6968,3.7053,3.7052,3.7124,3.7065,3.7056,3.7051,3.7045,3.7052,3.7134,3.7136,3.7137,3.7138,0,3.6176,3.6189,3.6264,3.6346,3.6408,3.6474,3.6538,3.6579,3.6617,3.6678,3.677,3.6826,3.6938,3.7027,3.7114,3.7156,3.7153,3.7157,3.7177,3.717,3.7153,3.7161,3.6955,3.7151,3.715,3.7149,3.7148,3.7148,3.6285,3.6348,3.6414,3.6498,3.6549,3.6609,3.6673,3.6713,3.6789,3.6881,3.6894,3.6992,3.7059,3.7176,3.7221,3.7298,3.728,3.7309,3.7316,3.7323,3.7326,3.7143,3.7315,3.7314,3.7314,3.7314,3.7314,0,3.6442,3.6484,3.6561,3.6649,3.6715,3.6707,3.6778,3.6834,3.6919,3.6982,3.7053,3.7158,3.7245,3.7298,3.7385,3.7437,3.7438,3.7459,3.7454,3.7464,3.7339,3.7312,3.7456,3.7456,3.7456,3.7456,3.7456,3.7456,3.6531,3.6638,3.6659,3.6792,3.6834,3.6928,3.6969,3.7025,3.7075,3.7191,3.7262,3.7297,3.7356,3.7448,3.7527,3.754,3.7571,3.7593,3.7605,3.7487,3.7472,3.7458,3.7433,3.76,3.7601,3.7723,3.7724,3.7725]},{"header":{"parameterUnit":"m.s-1","parameterCategory":1,"la1":30.2991,"la2":30.254,"lo1":-89.0895,"lo2":-89.0444,"dy":0.0017,"dx":0.0017,"nx":28,"ny":28,"refTime":"2025-07-14T03:00:00:Z","depth":0,"parameterNumber":3,"parameterNumberName":"V-component_of_WINDS"},"data":[0,0,0,0,0,0,0,0,0,0,0,0,0,0,0,0,0,0,0,0,0,0,0,0,0,0,0,0,0,0,0,0,0,0,0,0,0,0,0,0,0,0,0,0,0,0,0,0,0,0,0,0,0,0,0,0,0,0,2.5194,2.5195,0,2.5293,2.5294,2.5295,2.5294,2.5293,2.5292,2.529,2.5387,2.5391,2.5394,0,0,0,0,0,0,0,0,0,0,0,0,0,2.4998,2.5001,2.5194,2.5195,2.5196,2.5293,2.5294,2.5296,2.5294,2.5293,2.5291,2.529,2.5386,2.539,2.5395,0,0,0,0,0,0,0,0,0,0,0,0,0,2.5088,2.5002,2.5193,2.5207,2.521,2.5293,2.5294,2.5296,2.5295,2.5293,2.5291,2.5289,2.5384,2.539,2.5395,2.547,0,0,2.5413,2.5415,0,0,0,0,0,0,0,0,2.5083,2.5095,2.5204,2.5207,2.5209,2.5279,2.5261,2.5354,2.5295,2.5262,2.529,2.5288,2.5352,2.5361,2.5383,2.5474,2.5478,2.5413,2.5417,2.5419,2.5421,0,0,0,0,0,0,0,2.5077,2.5091,2.5233,2.5206,2.5209,2.5207,2.5218,2.5278,2.5317,2.5265,2.5265,2.5277,2.5353,2.5378,2.5386,2.548,2.5413,2.5418,2.5422,2.5424,2.5635,2.5637,0,0,0,0,0,0,2.5068,2.5086,2.523,2.5236,2.514,2.5212,2.5224,2.5259,2.5316,2.5323,2.5279,2.5277,2.5369,2.5379,2.5389,2.5479,2.5419,2.5424,2.5428,2.5633,2.5636,2.5638,0,0,0,0,0,0,2.5064,2.5081,2.5226,2.5161,2.5179,2.5218,2.5256,2.5262,2.5286,2.5327,2.5333,2.5297,2.5368,2.5381,2.545,2.5483,2.5427,2.5432,2.563,2.5634,2.5637,2.566,0,0,0,0,0,0,2.5059,2.508,2.511,2.5162,2.5183,2.5286,2.5259,2.5265,2.5297,2.5295,2.5346,2.5352,2.5367,2.5441,2.5455,2.5489,2.5437,2.5627,2.5632,2.5636,2.5657,2.5664,2.567,0,0,0,0,0,2.5052,2.5111,2.5111,2.5129,2.5221,2.5288,2.53,2.5318,2.5299,2.5329,2.5355,2.535,2.5477,2.5448,2.5464,2.55,2.5625,2.5631,2.5635,2.5654,2.5663,2.567,0,0,0,0,0,0,2.506,2.5118,2.5119,2.5198,2.5238,2.5288,2.5326,2.5327,2.5373,2.5369,2.5388,2.5399,2.5467,2.5491,2.5458,2.5575,2.5548,2.5557,2.5557,2.5566,2.5573,2.5565,2.5441,0,0,0,0,0,2.5072,2.5123,2.517,2.5235,2.5256,2.5287,2.5317,2.5328,2.537,2.5386,2.5417,2.5457,2.5505,2.5537,2.5584,2.566,2.5671,2.5693,2.57,2.5705,2.5712,2.5753,2.5763,2.5654,2.5654,2.5654,0,0,2.5095,2.5133,2.5164,2.5238,2.5271,2.5322,2.5302,2.5357,2.5394,2.5394,2.5462,2.5486,2.5531,2.5603,2.5637,2.5625,2.5744,2.5711,2.5715,2.5719,2.5759,2.5769,2.5779,2.5658,2.5657,2.5656,0,0,2.5164,2.5199,2.5256,2.529,2.534,2.5361,2.5375,2.5425,2.5441,2.5509,2.551,2.5554,2.5637,2.567,2.5697,2.5778,2.5775,2.5792,2.5827,2.5867,2.5876,2.5883,2.5912,2.5922,2.5799,2.5799,2.5799,0,2.5186,2.5265,2.5285,2.5341,2.5373,2.5377,2.5434,2.5465,2.5527,2.5549,2.5535,2.5639,2.567,2.575,2.577,2.5792,2.5807,2.5786,2.5873,2.5881,2.5889,2.5916,2.5926,2.5801,2.58,2.58,2.58,0,2.529,2.5345,2.5385,2.5447,2.5483,2.5539,2.5566,2.56,2.5607,2.5629,2.5697,2.5734,2.5789,2.5808,2.5815,2.5889,2.588,2.587,2.5844,2.59,2.5926,2.5937,2.5803,2.5803,2.5802,2.5802,0,0,2.5367,2.544,2.5454,2.5482,2.5538,2.558,2.5635,2.569,2.5719,2.5761,2.5807,2.5878,2.5869,2.59,2.591,2.5945,2.6006,2.593,2.5931,2.5942,2.6089,2.6096,2.6108,2.6005,2.6007,2.6008,2.6085,0,2.5441,2.5543,2.5562,2.5649,2.5699,2.5704,2.5752,2.579,2.5812,2.5856,2.5879,2.5928,2.5913,2.5931,2.5966,2.5991,2.6035,2.5986,2.6046,2.6048,2.6035,2.6122,2.613,2.62,2.6095,2.6097,2.6098,0,2.5542,2.5589,2.5682,2.5731,2.5752,2.5796,2.5847,2.589,2.5933,2.5946,2.5981,2.5987,2.6043,2.6015,2.6092,2.6058,2.6084,2.6099,2.6103,2.6108,2.6076,2.6129,2.6223,2.6233,2.6114,2.6113,2.6112,0,2.5588,2.5674,2.5741,2.5765,2.5824,2.5854,2.588,2.5921,2.5953,2.5997,2.6018,2.6067,2.6094,2.6132,2.615,2.6128,2.6226,2.6199,2.6237,2.6236,2.6257,2.6255,2.6355,2.6274,2.6274,2.6274,2.6273,0,2.5669,2.5725,2.5763,2.5803,2.5866,2.5887,2.5948,2.5973,2.601,2.6054,2.606,2.6101,2.6124,2.6168,2.6183,2.6244,2.6256,2.6267,2.627,2.6266,2.6265,2.6283,2.6279,2.6276,2.6276,2.6275,2.6275,0,2.5731,2.5758,2.5831,2.5882,2.5895,2.5939,2.5982,2.602,2.6042,2.6098,2.6112,2.6145,2.6198,2.6221,2.6284,2.6294,2.6363,2.6363,2.635,2.6351,2.6387,2.6383,2.6502,2.6518,2.6426,2.6427,2.6428,0,2.578,2.5824,2.588,2.5911,2.5938,2.5988,2.6021,2.6042,2.6076,2.6128,2.616,2.6213,2.6257,2.6339,2.6368,2.6416,2.6417,2.6455,2.6424,2.6419,2.6417,2.6414,2.6418,2.6461,2.6462,2.6462,2.6463,0,2.5865,2.5877,2.5925,2.5978,2.6017,2.6059,2.61,2.6125,2.6153,2.619,2.6244,2.6278,2.6344,2.6396,2.6446,2.647,2.6471,2.6473,2.6484,2.648,2.647,2.6476,2.6365,2.647,2.6469,2.6468,2.6468,2.6468,2.5922,2.5961,2.6006,2.6059,2.6093,2.6131,2.6171,2.6198,2.6244,2.6301,2.631,2.6368,2.6409,2.6477,2.6503,2.6547,2.6538,2.6554,2.6558,2.6562,2.6564,2.6464,2.6556,2.6556,2.6556,2.6556,2.6556,0,2.6007,2.6036,2.6085,2.6143,2.6185,2.6184,2.6229,2.6263,2.6315,2.6354,2.6397,2.6459,2.6509,2.6542,2.6592,2.6621,2.6623,2.6634,2.6631,2.6637,2.657,2.6555,2.6632,2.6632,2.6632,2.6632,2.6632,2.6632,2.6055,2.6121,2.6138,2.622,2.6249,2.6307,2.6333,2.6368,2.64,2.6469,2.6512,2.6534,2.657,2.6623,2.6668,2.6676,2.6694,2.6706,2.6713,2.665,2.6642,2.6634,2.662,2.671,2.671,2.6777,2.6777,2.6778]}]]